EUTELSAT 115 WEST A

Last updated on April 28, 2016, 5:39 p.m. UTC

1 25558U 98070A   16119.03788019 -.00000053  00000-0  00000+0 0  9991
2 25558   2.3430  75.7839 0004341 321.2435  38.6625  0.98721306 63926
UTC
Height (km)
Latitude
Longitude
Inclination
Orbital Period
UTC large
Height (km)
Speed (km/s)
/
Latitude / Longitude
Inclination (degrees)
Orbital Period (minutes)
Azimuth
Elevation
Range (km)
Doppler Factor
iOS Compass Heading
iOS Angle

Next 30 passes for location: Hong Kong

Rise time Rise Azimuth (degrees) Set time Set Azimuth (degrees) Duration Max altitude (degrees)

No matching passes for this satellites